Home > Weather > Londrina > Past weeks

Flag for Brazil Past Weather in Londrina, Paraná, Brazil — Yesterday and Last 2 Weeks

Now
63 °F

Clear.


Feels Like: 63 °F
Forecast: 60 / 86 °F
Wind: 3 mph from Southeast

Location: Londrina Aeroporto

Current Time: Aug 25, 2016 at 1:51:51 AM

Latest Report: Aug 25, 2016 at 1:00 AM


Visibility: 10 mi

Pressure: 30.12 "Hg (28.02 "Hg at 615m altitude)

Humidity: 83%

Dew Point: 57 °F

Location of LondrinaLocation

Past Weather in Londrina — Graph

°F

Londrina Temperature Yesterday

Maximum temperature yesterday: 79 °F (at 3:00 PM)
Minimum temperature yesterday: 50 °F (at 6:00 AM)
Average temperature yesterday: 64 °F

High & Low Weather Summary for the Past Weeks

 TemperatureHumidityPressure
High90 °F (Aug 17, 4:00 PM)100% (Aug 20, 10:00 AM)30.33 "Hg (Aug 20, 10:00 AM)
Low45 °F (Aug 22, 5:00 AM)22% (Aug 10, 4:00 PM)29.83 "Hg (Aug 20, 7:00 PM)
Average65 °F68%30.07 "Hg
* Reported Aug 10 1:00 AM — Aug 25 1:00 AM, Londrina, Weather by CustomWeather, © 2016

Note: Actual official high and low records may vary slightly from our data, if they occured in-between our weather recording intervals... More about our weather records

Advertising

Londrina Weather History for the Previous 24 Hours

Scroll right to see more
 ConditionsComfort  
Time TempWeatherWind HumidityBarometerVisibility
1:00 AM
Thu, Aug 25
63 °FClear.3 mph83%30.12 "Hg10 mi
12:00 AM64 °FClear.3 mph78%30.12 "Hg10 mi
11:00 PM
Wed, Aug 24
66 °FClear.No wind73%30.12 "Hg10 mi
10:00 PM66 °FClear.3 mph73%30.12 "Hg10 mi
9:00 PM68 °FClear.5 mph69%30.12 "Hg10 mi
8:00 PM70 °FClear.6 mph64%30.09 "Hg10 mi
7:00 PM70 °FClear.6 mph64%30.09 "Hg10 mi
6:00 PM75 °FClear.7 mph54%30.09 "Hg10 mi
5:00 PM79 °FSunny.9 mph48%30.09 "Hg10 mi
4:00 PM79 °FSunny.9 mph48%30.09 "Hg10 mi
3:00 PM79 °FSunny.9 mph48%30.09 "Hg10 mi
2:00 PM77 °FSunny.9 mph51%30.12 "Hg10 mi
1:00 PM73 °FSunny.9 mph53%30.15 "Hg10 mi
12:00 PM72 °FSunny.10 mph53%30.18 "Hg10 mi
11:00 AM68 °FSunny.10 mph56%30.21 "Hg10 mi
10:00 AM63 °FSunny.7 mph64%30.21 "Hg10 mi
9:00 AM59 °FSunny.7 mph72%30.21 "Hg10 mi
8:00 AM54 °FSunny.3 mph82%30.18 "Hg10 mi
7:00 AM50 °FSunny.5 mph94%30.18 "Hg10 mi
6:00 AM50 °FSunny.5 mph94%30.15 "Hg10 mi
5:00 AM52 °FClear.6 mph88%30.15 "Hg10 mi
4:00 AM54 °FClear.6 mph82%30.15 "Hg10 mi
3:00 AM54 °FClear.2 mph82%30.15 "Hg10 mi
2:00 AM55 °FClear.5 mph77%30.15 "Hg10 mi
1:00 AM55 °FClear.6 mph82%30.15 "Hg10 mi
Weather by CustomWeather, © 2016

See weather overviewHow to use our weather pages